IZ4UFQ-10 Weather Reports


Display with metric or nautical units.
time (UTC)temp
F
wind
direction
speed
MPH
gust
MPH
rain 1hr
in
rain 24hr
in
rain mn
in
humidity
%
barometer
mb
20260904002929 76 193 0.0 0.0 0.00 0.00 0.00 61 1017.7
20260904002429 76 193 0.0 0.0 0.00 0.00 0.00 61 1017.8
20260904001928 76 193 0.0 0.0 0.00 0.00 0.00 60 1017.9
20260904001428 76 193 0.0 0.0 0.00 0.00 0.00 60 1017.9
20260904000928 77 193 0.0 0.0 0.00 0.00 0.00 60 1017.9
20260904000427 77 193 0.0 0.0 0.00 0.00 0.00 60 1017.9
20260903235927 77 193 0.0 0.0 0.00 0.00 0.00 60 1017.9
20260903235427 77 193 0.0 0.0 0.00 0.00 0.00 60 1017.9
20260903234927 77 193 0.0 0.0 0.00 0.00 0.00 60 1017.9
20260903234426 77 193 0.0 0.0 0.00 0.00 0.00 60 1017.9
20260903233926 77 193 0.0 0.0 0.00 0.00 0.00 60 1017.9
20260903233426 76 193 0.0 0.0 0.00 0.00 0.00 60 1017.9
20260903232925 76 191 0.0 0.0 0.00 0.00 0.00 60 1017.8
20260903232425 77 191 0.0 0.0 0.00 0.00 0.00 60 1017.8
20260903231925 77 191 0.0 0.0 0.00 0.00 0.00 60 1017.8
20260903231425 77 191 0.0 0.0 0.00 0.00 0.00 60 1017.8
20260903230924 77 191 0.0 0.0 0.00 0.00 0.00 60 1017.9
20260903230424 77 191 0.0 0.0 0.00 0.00 0.00 60 1017.9
20260903225924 77 191 0.0 0.0 0.00 0.00 0.00 59 1017.9
20260903225423 77 191 0.0 0.0 0.00 0.00 0.00 59 1017.9
20260903224923 77 191 0.0 0.0 0.00 0.00 0.00 59 1017.9
20260903224423 77 191 0.0 0.0 0.00 0.00 0.00 59 1017.9
20260903223923 78 191 0.0 0.0 0.00 0.00 0.00 58 1017.7
20260903223422 78 191 0.0 0.0 0.00 0.00 0.00 58 1017.7
20260903222922 78 191 0.0 0.0 0.00 0.00 0.00 58 1017.7
20260903222422 78 191 0.0 0.0 0.00 0.00 0.00 58 1017.7
20260903221921 78 191 0.0 0.0 0.00 0.00 0.00 57 1017.7
20260903221421 78 191 0.0 0.0 0.00 0.00 0.00 57 1017.7
20260903220921 78 191 0.0 0.0 0.00 0.00 0.00 57 1017.6
20260903220421 78 191 0.0 0.0 0.00 0.00 0.00 57 1017.6
20260903220151 78 191 0.0 0.0 0.00 0.00 0.00 58 1017.6
20260903220116 78 191 0.0 0.0 0.00 0.00 0.00 58 1017.6
20260903215920 78 191 0.0 0.0 0.00 0.00 0.00 58 1017.6
20260903215420 78 191 0.0 0.0 0.00 0.00 0.00 58 1017.5
20260903214920 77 163 0.0 0.0 0.00 0.00 0.00 59 1017.5
20260903214419 77 137 0.0 0.0 0.00 0.00 0.00 60 1017.5
20260903213919 77 137 0.0 0.0 0.00 0.00 0.00 60 1017.5
20260903213419 77 137 0.0 0.0 0.00 0.00 0.00 60 1017.5
20260903212919 77 137 0.0 0.0 0.00 0.00 0.00 60 1017.5
20260903212418 77 137 0.0 0.0 0.00 0.00 0.00 60 1017.5
20260903211918 77 137 0.0 0.0 0.00 0.00 0.00 60 1017.5
20260903211418 77 137 0.0 0.0 0.00 0.00 0.00 61 1017.6
20260903210917 77 137 0.0 0.0 0.00 0.00 0.00 62 1017.6
20260903210641 77 137 0.0 0.0 0.00 0.00 0.00 63 1017.5
20260903210417 77 137 0.0 0.0 0.00 0.00 0.00 62 1017.6
20260903205917 77 137 0.0 0.0 0.00 0.00 0.00 63 1017.5
20260903205417 77 137 0.0 0.0 0.00 0.00 0.00 63 1017.5
20260903204916 77 137 0.0 0.0 0.00 0.00 0.00 63 1017.5
20260903204551 77 137 0.0 0.0 0.00 0.00 0.00 63 1017.4
20260903204416 77 137 0.0 0.0 0.00 0.00 0.00 63 1017.4
20260903203916 77 137 0.0 0.0 0.00 0.00 0.00 63 1017.4
20260903203415 77 137 0.0 0.0 0.00 0.00 0.00 63 1017.4
20260903202915 77 137 0.0 0.0 0.00 0.00 0.00 62 1017.4
20260903202415 78 137 0.0 0.0 0.00 0.00 0.00 62 1017.4
20260903201915 78 137 0.0 0.0 0.00 0.00 0.00 61 1017.4
20260903201414 78 137 0.0 0.0 0.00 0.00 0.00 60 1017.4
20260903200914 79 137 0.0 0.0 0.00 0.00 0.00 60 1017.4
20260903200414 79 137 0.0 0.0 0.00 0.00 0.00 59 1017.5
20260903195913 79 137 0.0 0.0 0.00 0.00 0.00 58 1017.4
20260903195413 80 137 0.0 0.0 0.00 0.00 0.00 57 1017.5
20260903194913 80 137 0.0 0.0 0.00 0.00 0.00 57 1017.4
20260903194412 81 137 0.0 0.0 0.00 0.00 0.00 56 1017.4
20260903193912 81 137 0.0 0.0 0.00 0.00 0.00 55 1017.3
20260903193412 81 137 0.0 0.0 0.00 0.00 0.00 55 1017.3
20260903192912 81 137 0.0 0.0 0.00 0.00 0.00 55 1017.3
20260903192411 81 137 0.0 0.0 0.00 0.00 0.00 54 1017.3
20260903191911 82 137 0.0 0.0 0.00 0.00 0.00 54 1017.2
20260903191411 82 137 0.0 0.0 0.00 0.00 0.00 54 1017.2
20260903190910 82 137 0.0 0.0 0.00 0.00 0.00 53 1017.1
20260903190410 82 137 0.0 0.0 0.00 0.00 0.00 53 1017.1
20260903185910 82 137 0.0 0.0 0.00 0.00 0.00 54 1017.1
20260903185410 81 139 0.0 0.0 0.00 0.00 0.00 54 1017.0
20260903184909 81 149 0.0 0.0 0.00 0.00 0.00 55 1017.1
20260903184409 80 239 0.0 0.0 0.00 0.00 0.00 55 1017.0
20260903183909 81 243 0.0 0.0 0.00 0.00 0.00 55 1017.0
20260903183408 81 243 0.0 0.0 0.00 0.00 0.00 54 1016.9
20260903182908 81 243 0.0 0.0 0.00 0.00 0.00 54 1016.9
20260903182408 82 243 0.0 0.0 0.00 0.00 0.00 53 1016.8
20260903181908 82 243 0.0 0.0 0.00 0.00 0.00 53 1016.8
20260903181407 83 243 0.0 0.0 0.00 0.00 0.00 52 1016.8
20260903180907 84 243 0.0 0.0 0.00 0.00 0.00 51 1016.7
20260903180407 84 243 0.0 0.0 0.00 0.00 0.00 50 1016.7
20260903175906 85 243 0.0 0.0 0.00 0.00 0.00 49 1016.7
20260903175406 85 243 0.0 0.0 0.00 0.00 0.00 48 1016.6
20260903174906 86 243 0.0 0.0 0.00 0.00 0.00 47 1016.6
20260903174406 87 243 0.0 0.0 0.00 0.00 0.00 46 1016.5
20260903173905 88 243 0.0 0.0 0.00 0.00 0.00 44 1016.5
20260903173405 89 243 0.0 0.0 0.00 0.00 0.00 42 1016.4
20260903172905 90 242 0.0 0.0 0.00 0.00 0.00 39 1016.5
20260903172404 90 239 0.0 0.0 0.00 0.00 0.00 38 1016.4
20260903171904 91 235 0.0 0.0 0.00 0.00 0.00 38 1016.3
20260903171404 91 235 0.0 0.0 0.00 0.00 0.00 37 1016.3
20260903170904 92 234 0.0 0.0 0.00 0.00 0.00 36 1016.3
20260903170403 92 234 0.0 0.0 0.00 0.00 0.00 37 1016.2
20260903165903 92 233 0.0 0.0 0.00 0.00 0.00 36 1016.1
20260903165403 92 234 0.0 0.0 0.00 0.00 0.00 36 1016.1
20260903164902 92 233 0.0 0.0 0.00 0.00 0.00 36 1016.1
20260903164402 92 234 0.0 0.0 0.00 0.00 0.00 36 1016.1
20260903163902 93 234 0.0 0.0 0.00 0.00 0.00 35 1016.1
20260903163402 93 234 0.0 0.0 0.00 0.00 0.00 35 1016.1
20260903162901 93 233 0.0 0.0 0.00 0.00 0.00 34 1016.1
20260903162401 93 234 0.0 0.0 0.00 0.00 0.00 34 1016.1
20260903161901 93 233 0.0 0.0 0.00 0.00 0.00 35 1016.1
20260903161400 93 234 0.0 0.0 0.00 0.00 0.00 35 1016.1
20260903160900 92 233 0.0 0.0 0.00 0.00 0.00 35 1016.0
20260903160400 92 233 0.0 0.0 0.00 0.00 0.00 36 1016.0
20260903155859 92 234 0.0 0.0 0.00 0.00 0.00 36 1015.9
20260903155359 92 236 0.0 0.0 0.00 0.00 0.00 37 1015.9
20260903154859 91 266 0.0 0.0 0.00 0.00 0.00 38 1016.0
20260903154359 91 310 0.0 0.0 0.00 0.00 0.00 38 1016.0
20260903153858 91 291 0.0 0.0 0.00 0.00 0.00 38 1016.2
20260903153358 92 291 0.0 0.0 0.00 0.00 0.00 37 1016.2
20260903152858 92 289 0.0 0.0 0.00 0.00 0.00 37 1016.3
20260903152357 92 183 0.0 0.0 0.00 0.00 0.00 37 1016.4
20260903151857 93 178 0.0 0.0 0.00 0.00 0.00 36 1016.3
20260903151357 93 239 0.0 0.0 0.00 0.00 0.00 37 1016.5
20260903150857 93 239 0.0 0.0 0.00 0.00 0.00 37 1016.5
20260903150356 92 237 0.0 0.0 0.00 0.00 0.00 37 1016.5
20260903145856 92 239 0.0 0.0 0.00 0.00 0.00 37 1016.6
20260903145356 92 239 0.0 0.0 0.00 0.00 0.00 38 1016.6
20260903144855 91 303 0.0 0.0 0.00 0.00 0.00 38 1016.6
20260903144355 91 326 0.0 0.0 0.00 0.00 0.00 38 1016.7
20260903143855 91 17 0.0 0.0 0.00 0.00 0.00 38 1016.7
20260903143355 91 28 0.0 0.0 0.00 0.00 0.00 38 1016.8
20260903142854 91 52 0.0 0.0 0.00 0.00 0.00 38 1016.8
20260903142354 91 54 0.0 0.0 0.00 0.00 0.00 39 1016.8
20260903141854 91 20 0.0 0.0 0.00 0.00 0.00 39 1016.8
20260903141353 92 48 0.0 0.0 0.00 0.00 0.00 38 1016.8
20260903140853 93 285 0.0 0.0 0.00 0.00 0.00 38 1016.9
20260903140353 93 243 0.0 0.0 0.00 0.00 0.00 38 1016.9
20260903135853 92 248 0.0 0.0 0.00 0.00 0.00 39 1016.9
20260903135352 91 284 0.0 0.0 0.00 0.00 0.00 40 1017.0
20260903134852 91 318 0.0 0.0 0.00 0.00 0.00 40 1017.0
20260903134352 91 320 0.0 0.0 0.00 0.00 0.00 40 1017.0
20260903133851 91 12 0.0 0.0 0.00 0.00 0.00 40 1017.0
20260903133351 91 57 0.0 0.0 0.00 0.00 0.00 41 1017.1
20260903132851 90 147 0.0 0.0 0.00 0.00 0.00 41 1017.0
20260903132351 90 149 0.0 0.0 0.00 0.00 0.00 40 1017.0
20260903131850 90 147 0.0 0.0 0.00 0.00 0.00 41 1017.1
20260903131350 90 147 0.0 0.0 0.00 0.00 0.00 41 1017.2
20260903130850 89 148 0.0 0.0 0.00 0.00 0.00 42 1017.2
20260903130349 89 88 0.0 0.0 0.00 0.00 0.00 42 1017.2
20260903125849 89 87 0.0 0.0 0.00 0.00 0.00 43 1017.2
20260903125349 89 73 0.0 0.0 0.00 0.00 0.00 42 1017.3
20260903124849 89 78 0.0 0.0 0.00 0.00 0.00 43 1017.3
20260903124348 90 12 0.0 0.0 0.00 0.00 0.00 43 1017.4
20260903123848 90 341 0.0 0.0 0.00 0.00 0.00 42 1017.4
20260903123348 90 335 0.0 0.0 0.00 0.00 0.00 43 1017.3
20260903122847 89 245 0.0 0.0 0.00 0.00 0.00 42 1017.3
20260903122347 89 127 0.0 0.0 0.00 0.00 0.00 43 1017.3
20260903121847 89 130 0.0 0.0 0.00 0.00 0.00 43 1017.3
20260903121347 89 151 0.0 0.0 0.00 0.00 0.00 43 1017.4
20260903120846 89 156 0.0 0.0 0.00 0.00 0.00 44 1017.6
20260903120346 88 166 0.0 0.0 0.00 0.00 0.00 44 1017.6
20260903115846 88 4 0.0 0.0 0.00 0.00 0.00 44 1017.7
20260903115345 88 330 0.0 0.0 0.00 0.00 0.00 45 1017.6
20260903114845 88 4 0.0 0.0 0.00 0.00 0.00 45 1017.7
20260903114345 88 15 0.0 0.0 0.00 0.00 0.00 46 1017.7
20260903113844 88 4 0.0 0.0 0.00 0.00 0.00 45 1017.7
20260903113344 88 27 0.0 0.0 0.00 0.00 0.00 46 1017.7
20260903112844 88 39 0.0 0.0 0.00 0.00 0.00 46 1017.8
20260903112344 88 359 0.0 0.0 0.00 0.00 0.00 46 1017.8
20260903111843 88 29 0.0 0.0 0.00 0.00 0.00 47 1017.9
20260903111343 88 17 0.0 0.0 0.00 0.00 0.00 47 1017.9
20260903110843 88 26 0.0 0.0 0.00 0.00 0.00 47 1018.0
20260903110343 87 21 0.0 0.0 0.00 0.00 0.00 47 1018.0
20260903105842 87 19 0.0 0.0 0.00 0.00 0.00 47 1018.1
20260903105342 87 18 0.0 0.0 0.00 0.00 0.00 48 1018.1
20260903104842 87 21 0.0 0.0 0.00 0.00 0.00 48 1018.2
20260903104341 86 14 0.0 0.0 0.00 0.00 0.00 49 1018.2
20260903103841 86 41 0.0 0.0 0.00 0.00 0.00 47 1018.3
20260903103341 87 359 0.0 0.0 0.00 0.00 0.00 48 1018.4
20260903102840 87 295 0.0 0.0 0.00 0.00 0.00 48 1018.4
20260903102340 87 329 0.0 0.0 0.00 0.00 0.00 48 1018.5
20260903101840 87 280 0.0 0.0 0.00 0.00 0.00 49 1018.6
20260903101340 86 254 0.0 0.0 0.00 0.00 0.00 50 1018.7
20260903100839 86 254 0.0 0.0 0.00 0.00 0.00 50 1018.8
20260903100339 85 252 0.0 0.0 0.00 0.00 0.00 52 1018.8
20260903095839 85 320 0.0 0.0 0.00 0.00 0.00 52 1019.0
20260903095338 85 4 0.0 0.0 0.00 0.00 0.00 52 1019.0
20260903094838 85 11 0.0 0.0 0.00 0.00 0.00 52 1019.0
20260903094338 85 301 0.0 0.0 0.00 0.00 0.00 53 1019.0
20260903093838 84 41 0.0 0.0 0.00 0.00 0.00 54 1019.0
20260903093337 84 41 0.0 0.0 0.00 0.00 0.00 54 1019.1
20260903092837 84 41 0.0 0.0 0.00 0.00 0.00 53 1019.1
20260903092337 84 349 0.0 0.0 0.00 0.00 0.00 54 1019.0
20260903091836 84 345 0.0 0.0 0.00 0.00 0.00 55 1019.1
20260903091336 83 345 0.0 0.0 0.00 0.00 0.00 56 1019.1
20260903090836 83 345 0.0 0.0 0.00 0.00 0.00 56 1019.1
20260903090336 83 316 0.0 0.0 0.00 0.00 0.00 56 1019.1
20260903085835 83 316 0.0 0.0 0.00 0.00 0.00 56 1019.2
20260903085335 83 317 0.0 0.0 0.00 0.00 0.00 55 1019.2
20260903084835 83 298 0.0 0.0 0.00 0.00 0.00 55 1019.2
20260903084334 83 283 0.0 0.0 0.00 0.00 0.00 56 1019.1
20260903083834 83 283 0.0 0.0 0.00 0.00 0.00 56 1019.1
20260903083334 83 283 0.0 0.0 0.00 0.00 0.00 56 1019.0
20260903082834 82 276 0.0 0.0 0.00 0.00 0.00 56 1019.0
20260903082333 82 278 0.0 0.0 0.00 0.00 0.00 56 1019.0
20260903081833 82 278 0.0 0.0 0.00 0.00 0.00 56 1018.9
20260903081333 82 277 0.0 0.0 0.00 0.00 0.00 56 1018.8
20260903080832 82 288 0.0 0.0 0.00 0.00 0.00 57 1018.8
20260903080332 81 288 0.0 0.0 0.00 0.00 0.00 58 1018.8
20260903075832 81 290 0.0 0.0 0.00 0.00 0.00 59 1018.8
20260903075332 80 290 0.0 0.0 0.00 0.00 0.00 60 1018.8
20260903074831 80 291 0.0 0.0 0.00 0.00 0.00 60 1018.8
20260903074331 80 289 0.0 0.0 0.00 0.00 0.00 61 1018.8
20260903073831 80 289 0.0 0.0 0.00 0.00 0.00 61 1018.8
20260903073330 80 289 0.0 0.0 0.00 0.00 0.00 60 1018.8
20260903072830 80 267 0.0 0.0 0.00 0.00 0.00 61 1018.7
20260903072330 79 253 0.0 0.0 0.00 0.00 0.00 60 1018.7
20260903071830 80 239 0.0 0.0 0.00 0.00 0.00 60 1018.6
20260903071329 80 227 0.0 0.0 0.00 0.00 0.00 61 1018.6
20260903070829 79 227 0.0 0.0 0.00 0.00 0.00 62 1018.7
20260903070329 78 227 0.0 0.0 0.00 0.00 0.00 63 1018.6
20260903065828 78 227 0.0 0.0 0.00 0.00 0.00 63 1018.7
20260903065328 78 226 0.0 0.0 0.00 0.00 0.00 64 1018.7
20260903064828 78 226 0.0 0.0 0.00 0.00 0.00 65 1018.7
20260903064327 78 226 0.0 0.0 0.00 0.00 0.00 64 1018.7
20260903063827 78 226 0.0 0.0 0.00 0.00 0.00 65 1018.7
20260903063327 77 226 0.0 0.0 0.00 0.00 0.00 65 1018.6
20260903062827 77 226 0.0 0.0 0.00 0.00 0.00 65 1018.6
20260903062326 77 226 0.0 0.0 0.00 0.00 0.00 68 1018.6
20260903061826 76 226 0.0 0.0 0.00 0.00 0.00 69 1018.4
20260903061326 76 226 0.0 0.0 0.00 0.00 0.00 68 1018.4
20260903060826 75 226 0.0 0.0 0.00 0.00 0.00 69 1018.3
20260903060325 75 226 0.0 0.0 0.00 0.00 0.00 69 1018.3
20260903055825 75 226 0.0 0.0 0.00 0.00 0.00 69 1018.3
20260903055325 75 226 0.0 0.0 0.00 0.00 0.00 70 1018.3
20260903054824 74 226 0.0 0.0 0.00 0.00 0.00 70 1018.2
20260903054324 74 226 0.0 0.0 0.00 0.00 0.00 71 1018.2
20260903053824 74 226 0.0 0.0 0.00 0.00 0.00 71 1018.1
20260903053323 73 226 0.0 0.0 0.00 0.00 0.00 72 1018.1
20260903052823 73 226 0.0 0.0 0.00 0.00 0.00 72 1018.0
20260903052323 73 226 0.0 0.0 0.00 0.00 0.00 73 1018.0
20260903051823 73 226 0.0 0.0 0.00 0.00 0.00 72 1018.0
20260903051322 73 226 0.0 0.0 0.00 0.00 0.00 73 1017.9
20260903050822 73 224 0.0 0.0 0.00 0.00 0.00 73 1017.8
20260903050322 72 215 0.0 0.0 0.00 0.00 0.00 73 1017.8
20260903045821 72 215 0.0 0.0 0.00 0.00 0.00 73 1017.8
20260903045321 72 214 0.0 0.0 0.00 0.00 0.00 73 1017.8
20260903044821 72 214 0.0 0.0 0.00 0.00 0.00 74 1017.7
20260903044321 72 214 0.0 0.0 0.00 0.00 0.00 74 1017.7
20260903043820 72 214 0.0 0.0 0.00 0.00 0.00 74 1017.6
20260903043320 72 214 0.0 0.0 0.00 0.00 0.00 74 1017.6
20260903042820 72 214 0.0 0.0 0.00 0.00 0.00 74 1017.6
20260903042319 72 214 0.0 0.0 0.00 0.00 0.00 74 1017.5
20260903041819 72 214 0.0 0.0 0.00 0.00 0.00 73 1017.5
20260903041319 72 213 0.0 0.0 0.00 0.00 0.00 73 1017.4
20260903040819 72 212 0.0 0.0 0.00 0.00 0.00 74 1017.3
20260903040318 72 219 0.0 0.0 0.00 0.00 0.00 74 1017.3
20260903035818 72 220 0.0 0.0 0.00 0.00 0.00 74 1017.3
20260903035318 72 219 0.0 0.0 0.00 0.00 0.00 74 1017.3
20260903034817 72 218 0.0 0.0 0.00 0.00 0.00 74 1017.3
20260903034317 73 213 0.0 0.0 0.00 0.00 0.00 73 1017.4
20260903033817 73 213 0.0 0.0 0.00 0.00 0.00 73 1017.4
20260903033317 73 213 0.0 0.0 0.00 0.00 0.00 73 1017.4
20260903032816 73 202 0.0 0.0 0.00 0.00 0.00 73 1017.4
20260903032316 73 251 0.0 0.0 0.00 0.00 0.00 73 1017.3
20260903031816 73 222 0.0 0.0 0.00 0.00 0.00 72 1017.4
20260903031315 73 216 0.0 0.0 0.00 0.00 0.00 72 1017.3
20260903030815 73 217 0.0 0.0 0.00 0.00 0.00 72 1017.3
20260903030315 74 217 0.0 0.0 0.00 0.00 0.00 71 1017.3
20260903025814 74 216 0.0 0.0 0.00 0.00 0.00 72 1017.3
20260903025314 74 216 0.0 0.0 0.00 0.00 0.00 72 1017.3
20260903024814 74 216 0.0 0.0 0.00 0.00 0.00 72 1017.2
20260903024314 73 216 0.0 0.0 0.00 0.00 0.00 72 1017.2
20260903023813 73 202 0.0 0.0 0.00 0.00 0.00 72 1017.3
20260903023313 73 189 0.0 0.0 0.00 0.00 0.00 72 1017.2
20260903022813 73 241 0.0 0.0 0.00 0.00 0.00 72 1017.2
20260903022312 73 209 0.0 0.0 0.00 0.00 0.00 72 1017.2
20260903021812 73 209 0.0 0.0 0.00 0.00 0.00 72 1017.3
20260903021312 74 216 0.0 0.0 0.00 0.00 0.00 72 1017.2
20260903020812 74 287 0.0 0.0 0.00 0.00 0.00 72 1017.3
20260903020311 74 189 0.0 0.0 0.00 0.00 0.00 72 1017.3
20260903015811 74 238 0.0 0.0 0.00 0.00 0.00 72 1017.3
20260903015311 74 228 0.0 0.0 0.00 0.00 0.00 73 1017.3
20260903014810 74 233 0.0 0.0 0.00 0.00 0.00 73 1017.2
20260903014310 74 215 0.0 0.0 0.00 0.00 0.00 73 1017.2
20260903013810 73 215 0.0 0.0 0.00 0.00 0.00 73 1017.2
20260903013310 73 215 0.0 0.0 0.00 0.00 0.00 73 1017.2
20260903012809 74 223 0.0 0.0 0.00 0.00 0.00 73 1017.2
20260903012309 74 196 0.0 0.0 0.00 0.00 0.00 73 1017.2
20260903011809 74 213 0.0 0.0 0.00 0.00 0.00 73 1017.2
20260903011308 74 223 0.0 0.0 0.00 0.00 0.00 73 1017.1
20260903010808 74 220 0.0 0.0 0.00 0.00 0.00 73 1017.1
20260903010308 74 216 0.0 0.0 0.00 0.00 0.00 73 1017.1
20260903005808 74 245 0.0 0.0 0.00 0.00 0.00 73 1017.2
20260903005307 74 240 0.0 0.0 0.00 0.00 0.00 73 1017.2
20260903004807 74 237 0.0 0.0 0.00 0.00 0.00 73 1017.1
20260903004307 74 256 0.0 0.0 0.00 0.00 0.00 73 1017.1
20260903003806 74 213 0.0 0.0 0.00 0.00 0.00 73 1017.0